Time,TemperatureF,DewpointF,PressureIn,WindDirection,WindDirectionDegrees,WindSpeedMPH,WindSpeedGustMPH,Humidity,HourlyPrecipIn,Conditions,Clouds,dailyrainin,SoftwareType,DateUTC
2013-07-18 00:11:00,73.0,72.0,-100.00,NNE,25,1.0,2.0,93,0.00,,,0.00,,2013-07-18 05:11:00,
2013-07-18 00:22:00,73.0,72.0,-100.00,NW,325,3.0,4.0,94,0.00,,,0.00,,2013-07-18 05:22:00,
2013-07-18 01:01:00,73.0,72.0,-100.00,South,175,2.0,5.0,93,0.00,,,0.00,,2013-07-18 06:01:00,
2013-07-18 01:12:00,74.0,70.0,-100.00,SSW,195,4.0,6.0,89,0.00,,,0.00,,2013-07-18 06:12:00,
2013-07-18 01:22:00,74.0,70.0,-100.00,SW,215,2.0,6.0,88,0.00,,,0.00,,2013-07-18 06:22:00,
2013-07-18 01:52:00,72.0,70.0,-100.00,NW,325,0.0,2.0,93,0.00,,,0.00,,2013-07-18 06:52:00,
2013-07-18 02:01:00,71.0,70.0,-100.00,NE,55,0.0,1.0,94,0.00,,,0.00,,2013-07-18 07:01:00,
2013-07-18 02:22:00,71.0,70.0,-100.00,ESE,120,2.0,2.0,94,0.00,,,0.00,,2013-07-18 07:22:00,
2013-07-18 02:52:00,71.0,70.0,-100.00,SSE,150,1.0,2.0,94,0.00,,,0.00,,2013-07-18 07:52:00,
2013-07-18 03:21:00,72.0,70.0,-100.00,South,175,4.0,4.0,94,0.00,,,0.00,,2013-07-18 08:21:00,
2013-07-18 04:01:00,72.0,70.0,-100.00,SSE,165,3.0,5.0,93,0.00,,,0.00,,2013-07-18 09:01:00,
2013-07-18 04:11:00,72.0,70.0,-100.00,SSW,195,4.0,6.0,93,0.00,,,0.00,,2013-07-18 09:11:00,
2013-07-18 04:21:00,72.0,70.0,-100.00,South,175,4.0,6.0,93,0.00,,,0.00,,2013-07-18 09:21:00,
2013-07-18 05:01:00,72.0,70.0,-100.00,South,175,5.0,7.0,93,0.00,,,0.00,,2013-07-18 10:01:00,
2013-07-18 05:21:00,72.0,70.0,-100.00,South,185,4.0,7.0,93,0.00,,,0.00,,2013-07-18 10:21:00,
2013-07-18 05:52:00,72.0,70.0,-100.00,SSW,200,7.0,12.0,91,0.00,,,0.00,,2013-07-18 10:52:00,
2013-07-18 06:01:00,72.0,70.0,-100.00,SSW,205,7.0,11.0,91,0.00,,,0.00,,2013-07-18 11:01:00,
2013-07-18 06:11:00,72.0,70.0,-100.00,SSW,195,4.0,7.0,91,0.00,,,0.00,,2013-07-18 11:11:00,
2013-07-18 06:22:00,72.0,70.0,-100.00,South,185,4.0,6.0,91,0.00,,,0.00,,2013-07-18 11:22:00,
2013-07-18 06:43:00,72.0,70.0,-100.00,South,175,4.0,9.0,91,0.00,,,0.00,,2013-07-18 11:43:00,
2013-07-18 06:52:00,72.0,70.0,-100.00,South,190,4.0,7.0,91,0.00,,,0.00,,2013-07-18 11:52:00,
2013-07-18 07:22:00,72.0,70.0,-100.00,South,175,6.0,9.0,91,0.00,,,0.00,,2013-07-18 12:22:00,
2013-07-18 07:52:00,75.0,70.0,-100.00,SSW,200,7.0,12.0,84,0.00,,,0.00,,2013-07-18 12:52:00,
2013-07-18 08:22:00,77.0,70.0,-100.00,SSW,195,9.0,13.0,76,0.00,,,0.00,,2013-07-18 13:22:00,
2013-07-18 09:02:00,78.0,68.0,-100.00,SSW,205,13.0,18.0,72,0.00,,,0.00,,2013-07-18 14:02:00,
2013-07-18 09:22:00,80.0,70.0,-100.00,SSW,200,8.0,17.0,71,0.00,,,0.00,,2013-07-18 14:22:00,
2013-07-18 09:33:00,80.0,70.0,-100.00,SW,215,13.0,18.0,68,0.00,,,0.00,,2013-07-18 14:33:00,
2013-07-18 10:01:00,82.0,68.0,-100.00,SSW,210,12.0,17.0,65,0.00,,,0.00,,2013-07-18 15:01:00,
2013-07-18 10:11:00,82.0,68.0,-100.00,SSW,210,13.0,21.0,63,0.00,,,0.00,,2013-07-18 15:11:00,
2013-07-18 10:22:00,82.0,68.0,-100.00,SSW,205,14.0,20.0,62,0.00,,,0.00,,2013-07-18 15:22:00,
2013-07-18 11:01:00,84.0,68.0,-100.00,SW,220,15.0,23.0,59,0.00,,,0.00,,2013-07-18 16:01:00,
2013-07-18 11:22:00,85.0,68.0,-100.00,SW,215,12.0,21.0,58,0.00,,,0.00,,2013-07-18 16:22:00,
2013-07-18 11:52:00,85.0,68.0,-100.00,SW,215,15.0,22.0,56,0.00,,,0.00,,2013-07-18 16:52:00,
2013-07-18 12:11:00,86.0,68.0,-100.00,SW,220,14.0,20.0,55,0.00,,,0.00,,2013-07-18 17:11:00,
2013-07-18 12:22:00,85.0,68.0,-100.00,SSW,205,13.0,19.0,55,0.00,,,0.00,,2013-07-18 17:22:00,
2013-07-18 12:33:00,86.0,68.0,-100.00,SW,230,13.0,19.0,56,0.00,,,0.00,,2013-07-18 17:33:00,
2013-07-18 13:22:00,86.0,68.0,-100.00,SW,235,13.0,19.0,55,0.00,,,0.00,,2013-07-18 18:22:00,
2013-07-18 13:52:00,87.0,70.0,-100.00,SSW,210,15.0,20.0,54,0.00,,,0.00,,2013-07-18 18:52:00,
2013-07-18 14:11:00,87.0,70.0,-100.00,SW,215,12.0,19.0,57,0.00,,,0.00,,2013-07-18 19:11:00,
2013-07-18 14:22:00,87.0,70.0,-100.00,SW,225,15.0,21.0,55,0.00,,,0.00,,2013-07-18 19:22:00,
2013-07-18 15:11:00,89.0,70.0,-100.00,SW,225,17.0,26.0,53,0.00,,,0.00,,2013-07-18 20:11:00,
2013-07-18 15:22:00,87.0,70.0,-100.00,SW,220,14.0,24.0,55,0.00,,,0.00,,2013-07-18 20:22:00,
2013-07-18 15:32:00,88.0,70.0,-100.00,SW,215,12.0,24.0,55,0.00,,,0.00,,2013-07-18 20:32:00,
2013-07-18 15:52:00,87.0,70.0,-100.00,SW,225,15.0,25.0,56,0.00,,,0.00,,2013-07-18 20:52:00,
2013-07-18 16:01:00,88.0,70.0,-100.00,SW,215,14.0,27.0,55,0.00,,,0.00,,2013-07-18 21:01:00,
2013-07-18 16:22:00,87.0,70.0,-100.00,SW,215,17.0,22.0,56,0.00,,,0.00,,2013-07-18 21:22:00,
2013-07-18 16:52:00,87.0,72.0,-100.00,SW,215,10.0,24.0,58,0.00,,,0.00,,2013-07-18 21:52:00,
2013-07-18 17:01:00,88.0,70.0,-100.00,SW,215,17.0,22.0,56,0.00,,,0.00,,2013-07-18 22:01:00,
2013-07-18 17:22:00,89.0,70.0,-100.00,SW,220,14.0,21.0,54,0.00,,,0.00,,2013-07-18 22:22:00,
2013-07-18 17:53:00,88.0,70.0,-100.00,SW,225,17.0,29.0,53,0.00,,,0.00,,2013-07-18 22:53:00,
2013-07-18 18:11:00,89.0,70.0,-100.00,SW,230,15.0,25.0,53,0.00,,,0.00,,2013-07-18 23:11:00,
2013-07-18 18:22:00,88.0,70.0,-100.00,SW,230,14.0,26.0,53,0.00,,,0.00,,2013-07-18 23:22:00,
2013-07-18 19:01:00,87.0,70.0,-100.00,SSW,210,12.0,23.0,57,0.00,,,0.00,,2013-07-19 00:01:00,
2013-07-18 19:22:00,86.0,70.0,-100.00,SW,225,17.0,24.0,57,0.00,,,0.00,,2013-07-19 00:22:00,
2013-07-18 19:32:00,86.0,70.0,-100.00,SW,220,18.0,27.0,58,0.00,,,0.00,,2013-07-19 00:32:00,
2013-07-18 19:43:00,86.0,70.0,-100.00,SW,235,13.0,25.0,58,0.00,,,0.00,,2013-07-19 00:43:00,
2013-07-18 20:01:00,85.0,70.0,-100.00,SW,225,13.0,21.0,60,0.00,,,0.00,,2013-07-19 01:01:00,
2013-07-18 20:11:00,85.0,70.0,-100.00,SW,225,13.0,21.0,61,0.00,,,0.00,,2013-07-19 01:11:00,
2013-07-18 20:22:00,84.0,72.0,-100.00,SW,225,12.0,17.0,64,0.00,,,0.00,,2013-07-19 01:22:00,
2013-07-18 20:42:00,84.0,72.0,-100.00,SW,220,11.0,19.0,65,0.00,,,0.00,,2013-07-19 01:42:00,
2013-07-18 20:52:00,83.0,72.0,-100.00,SW,225,10.0,16.0,66,0.00,,,0.00,,2013-07-19 01:52:00,
2013-07-18 21:22:00,81.0,73.0,-100.00,SSW,205,9.0,12.0,76,0.00,,,0.00,,2013-07-19 02:22:00,
2013-07-18 21:32:00,81.0,73.0,-100.00,SW,225,9.0,12.0,78,0.00,,,0.00,,2013-07-19 02:32:00,
2013-07-18 21:42:00,80.0,73.0,-100.00,SW,220,9.0,11.0,78,0.00,,,0.00,,2013-07-19 02:42:00,
2013-07-18 21:52:00,80.0,73.0,-100.00,SW,215,9.0,11.0,79,0.00,,,0.00,,2013-07-19 02:52:00,
2013-07-18 22:01:00,80.0,73.0,-100.00,SW,220,10.0,12.0,79,0.00,,,0.00,,2013-07-19 03:01:00,
2013-07-18 22:11:00,80.0,73.0,-100.00,SW,220,9.0,12.0,79,0.00,,,0.00,,2013-07-19 03:11:00,
2013-07-18 22:43:00,80.0,73.0,-100.00,SW,230,11.0,16.0,78,0.00,,,0.00,,2013-07-19 03:43:00,
2013-07-18 23:12:00,81.0,73.0,-100.00,WSW,255,11.0,17.0,79,0.00,,,0.00,,2013-07-19 04:12:00,
2013-07-18 23:22:00,80.0,73.0,-100.00,West,265,11.0,16.0,80,0.00,,,0.00,,2013-07-19 04:22:00,